DLH38Y LOWK-LSZS

Flight info

Callsign DLH38Y
Flight time 0h 38m
Altitude 34000
Route VILAK DCT GEDSO/N0413F300 Z408 RONAG
Aircraft A319/M-SDE3FGHIRWY/LB1

Departure

Time 2026-05-09 09:15
Airport Klagenfurt Airport (LOWK)

Arrival

Time 2026-05-09 09:54
Airport Engadin Airport (LSZS)
Time Latitude Longitude Altitude Speed Heading
2026-05-09 09:00 46.64846 14.32547 1464 ft 0 kts 77°
2026-05-09 09:12 46.64846 14.32548 1464 ft 1 kts 77°
2026-05-09 09:12 46.64850 14.32581 1459 ft 7 kts 88°
2026-05-09 09:13 46.64790 14.32627 1459 ft 12 kts 166°
2026-05-09 09:13 46.64703 14.32652 1464 ft 13 kts 184°
2026-05-09 09:13 46.64668 14.32555 1464 ft 13 kts 285°
2026-05-09 09:13 46.64634 14.32457 1463 ft 14 kts 191°
2026-05-09 09:14 46.64568 14.32428 1461 ft 7 kts 198°
2026-05-09 09:14 46.64522 14.32438 1458 ft 8 kts 114°
2026-05-09 09:14 46.64518 14.32456 1460 ft 0 kts 106°
2026-05-09 09:14 46.64517 14.32461 1460 ft 2 kts 106°
2026-05-09 09:15 46.64485 14.32626 1460 ft 47 kts 106°
2026-05-09 09:15 46.64312 14.33479 1461 ft 125 kts 106°
2026-05-09 09:15 46.64015 14.34884 1778 ft 153 kts 108°
2026-05-09 09:15 46.63706 14.36382 2535 ft 152 kts 107°
2026-05-09 09:16 46.63422 14.37846 3169 ft 159 kts 105°
2026-05-09 09:16 46.62702 14.41322 4139 ft 195 kts 107°
2026-05-09 09:16 46.62284 14.43349 4605 ft 219 kts 107°
2026-05-09 09:17 46.61902 14.45467 5626 ft 215 kts 99°
2026-05-09 09:17 46.62171 14.47627 6306 ft 233 kts 60°
2026-05-09 09:17 46.63436 14.49239 6757 ft 260 kts 21°
2026-05-09 09:17 46.65278 14.49453 7367 ft 278 kts 345°
2026-05-09 09:18 46.66943 14.48033 8269 ft 283 kts 311°
2026-05-09 09:18 46.67835 14.45499 9298 ft 285 kts 284°
2026-05-09 09:18 46.68313 14.42685 10314 ft 290 kts 283°
2026-05-09 09:18 46.68817 14.39715 10767 ft 312 kts 283°
2026-05-09 09:19 46.69344 14.36625 11506 ft 322 kts 283°
2026-05-09 09:19 46.69887 14.33435 12421 ft 325 kts 283°
2026-05-09 09:19 46.70430 14.30220 13354 ft 328 kts 283°
2026-05-09 09:19 46.70973 14.26968 14230 ft 332 kts 283°
2026-05-09 09:20 46.71521 14.23673 15036 ft 335 kts 283°
2026-05-09 09:20 46.72067 14.20390 15825 ft 338 kts 283°
2026-05-09 09:20 46.72624 14.17031 16612 ft 342 kts 283°
2026-05-09 09:20 46.73187 14.13640 17389 ft 345 kts 282°
2026-05-09 09:21 46.73752 14.10212 18172 ft 349 kts 283°
2026-05-09 09:21 46.74313 14.06790 18879 ft 352 kts 282°
2026-05-09 09:21 46.74884 14.03300 19568 ft 355 kts 283°
2026-05-09 09:21 46.75458 13.99788 20270 ft 357 kts 283°
2026-05-09 09:22 46.76034 13.96253 20966 ft 359 kts 283°
2026-05-09 09:22 46.76614 13.92687 21687 ft 361 kts 283°
2026-05-09 09:22 46.77193 13.89135 22393 ft 363 kts 283°
2026-05-09 09:22 46.77780 13.85520 23104 ft 365 kts 283°
2026-05-09 09:23 46.78365 13.81904 23777 ft 368 kts 283°
2026-05-09 09:23 46.78955 13.78243 24355 ft 370 kts 282°
2026-05-09 09:23 46.79544 13.74574 24927 ft 372 kts 282°
2026-05-09 09:23 46.80128 13.70922 25493 ft 374 kts 282°
2026-05-09 09:24 46.80720 13.67218 26040 ft 375 kts 282°
2026-05-09 09:24 46.81314 13.63502 26580 ft 377 kts 281°
2026-05-09 09:24 46.81916 13.59754 27112 ft 379 kts 281°
2026-05-09 09:24 46.82518 13.56000 27645 ft 381 kts 281°
2026-05-09 09:25 46.83124 13.52201 28176 ft 384 kts 281°
2026-05-09 09:25 46.83729 13.48389 28689 ft 386 kts 281°
2026-05-09 09:25 46.84335 13.44563 29196 ft 388 kts 281°
2026-05-09 09:25 46.84946 13.40707 29710 ft 390 kts 281°
2026-05-09 09:26 46.85560 13.36826 30207 ft 393 kts 280°
2026-05-09 09:26 46.86172 13.32921 30613 ft 395 kts 280°
2026-05-09 09:26 46.86789 13.29002 30971 ft 398 kts 281°
2026-05-09 09:26 46.87410 13.25049 31332 ft 400 kts 281°
2026-05-09 09:27 46.88021 13.21125 31690 ft 403 kts 281°
2026-05-09 09:27 46.88642 13.17122 32115 ft 404 kts 281°
2026-05-09 09:27 46.89262 13.13111 32603 ft 403 kts 281°
2026-05-09 09:27 46.89886 13.09083 33080 ft 403 kts 281°
2026-05-09 09:28 46.90496 13.05137 33599 ft 402 kts 281°
2026-05-09 09:28 46.91115 13.01136 34017 ft 402 kts 281°
2026-05-09 09:28 46.91930 12.95846 34124 ft 399 kts 281°
2026-05-09 09:29 46.92960 12.89105 34125 ft 417 kts 281°
2026-05-09 09:29 46.93598 12.84927 34125 ft 425 kts 281°
2026-05-09 09:29 46.94890 12.76394 34133 ft 430 kts 281°
2026-05-09 09:30 46.95774 12.67817 34126 ft 428 kts 267°
2026-05-09 09:30 46.95230 12.59133 34130 ft 429 kts 265°
2026-05-09 09:31 46.94646 12.50411 34150 ft 431 kts 264°
2026-05-09 09:32 46.93739 12.37309 34175 ft 430 kts 264°
2026-05-09 09:32 46.93127 12.28594 34165 ft 430 kts 264°
2026-05-09 09:33 46.92527 12.19917 34161 ft 431 kts 264°
2026-05-09 09:33 46.91917 12.11203 34120 ft 431 kts 264°
2026-05-09 09:34 46.91290 12.02475 34121 ft 431 kts 264°
2026-05-09 09:34 46.90652 11.93732 34126 ft 431 kts 264°
2026-05-09 09:36 46.88619 11.64537 31205 ft 392 kts 264°
2026-05-09 09:36 46.88343 11.60597 30708 ft 387 kts 263°
2026-05-09 09:36 46.88066 11.56699 30227 ft 382 kts 263°
2026-05-09 09:37 46.87789 11.52854 29659 ft 378 kts 263°
2026-05-09 09:37 46.87513 11.49051 29120 ft 374 kts 263°
2026-05-09 09:37 46.87238 11.45284 28569 ft 371 kts 263°
2026-05-09 09:37 46.86966 11.41558 28028 ft 366 kts 263°
2026-05-09 09:38 46.86698 11.37910 27505 ft 364 kts 263°
2026-05-09 09:38 46.86428 11.34251 26991 ft 361 kts 264°
2026-05-09 09:38 46.86160 11.30605 26496 ft 360 kts 264°
2026-05-09 09:38 46.85893 11.26981 26075 ft 356 kts 264°
2026-05-09 09:39 46.85630 11.23414 25709 ft 351 kts 264°
2026-05-09 09:39 46.85370 11.19892 25337 ft 346 kts 264°
2026-05-09 09:39 46.85110 11.16411 24978 ft 342 kts 264°
2026-05-09 09:39 46.84853 11.12987 24664 ft 336 kts 264°
2026-05-09 09:40 46.84601 11.09647 24322 ft 331 kts 264°
2026-05-09 09:40 46.84350 11.06325 23898 ft 328 kts 264°
2026-05-09 09:40 46.84099 11.03020 23423 ft 326 kts 264°
2026-05-09 09:40 46.83850 10.99732 22939 ft 325 kts 264°
2026-05-09 09:41 46.83600 10.96458 22471 ft 324 kts 264°
2026-05-09 09:41 46.83350 10.93204 22016 ft 322 kts 264°
2026-05-09 09:41 46.83104 10.89995 21569 ft 320 kts 264°
2026-05-09 09:41 46.82857 10.86762 21053 ft 320 kts 264°
2026-05-09 09:42 46.82606 10.83535 20645 ft 319 kts 264°
2026-05-09 09:42 46.82357 10.80327 20211 ft 317 kts 263°
2026-05-09 09:42 46.82108 10.77136 19771 ft 316 kts 263°
2026-05-09 09:42 46.81856 10.73947 19348 ft 316 kts 263°
2026-05-09 09:43 46.81603 10.70756 18953 ft 315 kts 263°
2026-05-09 09:43 46.81351 10.67579 18557 ft 314 kts 263°
2026-05-09 09:43 46.81097 10.64420 18124 ft 313 kts 263°
2026-05-09 09:43 46.80844 10.61298 17710 ft 313 kts 263°
2026-05-09 09:44 46.80590 10.58160 17315 ft 311 kts 263°
2026-05-09 09:44 46.80337 10.55021 16926 ft 310 kts 263°
2026-05-09 09:44 46.80086 10.51910 16551 ft 308 kts 263°
2026-05-09 09:44 46.79833 10.48801 16184 ft 307 kts 263°
2026-05-09 09:45 46.79578 10.45713 15828 ft 305 kts 263°
2026-05-09 09:45 46.79324 10.42637 15455 ft 304 kts 263°
2026-05-09 09:45 46.79072 10.39581 15113 ft 303 kts 263°
2026-05-09 09:45 46.78821 10.36560 14794 ft 302 kts 263°
2026-05-09 09:46 46.78571 10.33560 14667 ft 293 kts 263°
2026-05-09 09:46 46.78329 10.30659 14545 ft 285 kts 263°
2026-05-09 09:46 46.78090 10.27832 14427 ft 277 kts 261°
2026-05-09 09:46 46.77538 10.25191 14339 ft 266 kts 244°
2026-05-09 09:47 46.76589 10.22886 13830 ft 268 kts 237°
2026-05-09 09:47 46.75567 10.20646 13434 ft 260 kts 237°
2026-05-09 09:47 46.74580 10.18512 13236 ft 245 kts 236°
2026-05-09 09:47 46.73668 10.16539 13236 ft 224 kts 236°
2026-05-09 09:48 46.72803 10.14824 13154 ft 205 kts 228°
2026-05-09 09:48 46.71797 10.13385 12759 ft 200 kts 225°
2026-05-09 09:48 46.70811 10.11989 12373 ft 196 kts 225°
2026-05-09 09:48 46.69841 10.10614 11990 ft 193 kts 224°
2026-05-09 09:49 46.68891 10.09270 11668 ft 187 kts 224°
2026-05-09 09:49 46.67965 10.07961 11308 ft 183 kts 224°
2026-05-09 09:49 46.67061 10.06679 10772 ft 180 kts 224°
2026-05-09 09:49 46.66172 10.05418 10301 ft 173 kts 224°
2026-05-09 09:50 46.65342 10.04240 9981 ft 161 kts 224°
2026-05-09 09:50 46.64560 10.03132 9663 ft 152 kts 224°
2026-05-09 09:50 46.63822 10.02087 9365 ft 144 kts 223°
2026-05-09 09:50 46.63117 10.01111 9060 ft 139 kts 223°
2026-05-09 09:51 46.62418 10.00166 8727 ft 137 kts 222°
2026-05-09 09:51 46.61737 9.99194 8372 ft 137 kts 226°
2026-05-09 09:51 46.61047 9.98196 8055 ft 142 kts 225°
2026-05-09 09:51 46.60580 9.97529 7872 ft 143 kts 225°
2026-05-09 09:52 46.59860 9.96508 7594 ft 146 kts 225°
2026-05-09 09:52 46.58891 9.95140 7268 ft 145 kts 225°
2026-05-09 09:52 46.58413 9.94456 7110 ft 141 kts 224°
2026-05-09 09:52 46.57723 9.93456 6827 ft 139 kts 224°
2026-05-09 09:53 46.57048 9.92468 6517 ft 137 kts 224°
2026-05-09 09:53 46.56379 9.91480 6187 ft 138 kts 225°
2026-05-09 09:53 46.55721 9.90505 5990 ft 139 kts 224°
2026-05-09 09:53 46.54970 9.89625 5829 ft 139 kts 211°
2026-05-09 09:54 46.54121 9.88961 5649 ft 140 kts 208°
2026-05-09 09:54 46.53342 9.88330 5606 ft 100 kts 209°
2026-05-09 09:54 46.52975 9.88035 5603 ft 22 kts 207°
2026-05-09 09:54 46.52936 9.87975 5606 ft 8 kts 337°
2026-05-09 09:55 46.52964 9.88025 5601 ft 6 kts 28°
2026-05-09 09:55 46.52987 9.87994 5601 ft 5 kts 297°
2026-05-09 09:55 46.53005 9.87952 5601 ft 5 kts 306°
2026-05-09 09:55 46.53039 9.87941 5601 ft 5 kts 13°
2026-05-09 09:56 46.53075 9.87970 5603 ft 6 kts 31°
2026-05-09 09:56 46.53105 9.88016 5604 ft 7 kts 59°
2026-05-09 09:56 46.53123 9.88011 5604 ft 1 kts 302°
2026-05-09 09:56 46.53124 9.88009 5604 ft 0 kts 302°